Flag for Germany Weather past 2 weeks in Monheim am Rhein, North Rhine-Westphalia, Germany

Now
46 °F

Partly cloudy.


Feels Like: 40 °F
Forecast: 46 / 55 °F
Wind: 16 mph from West

Location: Duesseldorf

Current Time: Oct 22, 2014 at 7:41:50 AM

Latest Report: Oct 22, 2014 at 7:20 AM


Visibility: N/A

Pressure: 29.95 "Hg

Humidity: 82%

Dew point: 41 °F

Location of Monheim am RheinLocation

Historic Weather in Monheim am Rhein — Graph

°F

Monheim am Rhein temperature yesterday

Maximum temperature yesterday: 57 °F (at 11:50 AM)
Minimum temperature yesterday: 45 °F (at 10:50 PM)
Average temperature yesterday: 52 °F

Past Weeks' High & Low Weather Summary

 TemperatureHumidityPressure
High75 °F (Oct 19, 2:20 PM)100% (Oct 9, 2:50 AM)30.09 "Hg (Oct 9, 2:50 AM)
Low45 °F (Oct 21, 10:50 PM)49% (Oct 14, 2:20 PM)29.50 "Hg (Oct 7, 9:50 AM)
Average58 °F81%29.83 "Hg
* Reported Oct 7 6:20 AM — Oct 22 6:20 AM, Monheim am Rhein, Weather by CustomWeather, © 2014

Note: Actual official high and low records may vary slightly from our data, if they occured in-between our weather recording intervals... More about our weather records

Advertising

Monheim am Rhein weather history for previous 24 hours

 ConditionsComfort  
Time TempWeatherWind HumidityBarometerVisibility
6:20 AM
Oct 22
45 °FPartly cloudy.15 mph87%29.92 "HgN/A
5:50 AM46 °FPassing clouds.14 mph82%29.92 "HgN/A
5:20 AM45 °FSprinkles. Partly cloudy.16 mph87%29.92 "HgN/A
4:50 AM45 °FPartly cloudy.15 mph87%29.92 "HgN/A
4:20 AM45 °FPassing clouds.13 mph87%29.89 "HgN/A
3:50 AM45 °FClear.13 mph87%29.89 "Hg10 mi
3:20 AM46 °FPartly cloudy.13 mph82%29.89 "HgN/A
2:50 AM46 °FLight rain. Partly cloudy.14 mph87%29.89 "HgN/A
2:20 AM46 °FSprinkles. Partly cloudy.14 mph87%29.86 "HgN/A
1:50 AM45 °FSprinkles. Partly cloudy.14 mph93%29.86 "HgN/A
1:20 AM45 °FSprinkles. Passing clouds.13 mph93%29.86 "HgN/A
12:50 AM46 °FSprinkles. Partly cloudy.15 mph87%29.83 "HgN/A
12:20 AM45 °FSprinkles. Partly cloudy.14 mph93%29.83 "HgN/A
11:50 PM
Oct 21
45 °FSprinkles. Partly cloudy.13 mph87%29.80 "HgN/A
11:20 PM45 °FSprinkles. Mostly cloudy.15 mph87%29.77 "HgN/A
10:50 PM45 °FRain showers. Passing clouds.15 mph87%29.77 "Hg5 mi
10:20 PM46 °FSprinkles. Partly cloudy.10 mph82%29.74 "HgN/A
9:50 PM46 °FPassing clouds.14 mph82%29.71 "HgN/A
9:20 PM48 °FSprinkles. Partly cloudy.15 mph82%29.68 "HgN/A
8:50 PM48 °FPassing clouds.15 mph82%29.68 "HgN/A
8:20 PM50 °FSprinkles. Partly cloudy.17 mph76%29.65 "HgN/A
7:50 PM50 °FPassing clouds.15 mph76%29.65 "HgN/A
7:20 PM50 °FPartly sunny.17 mph76%29.62 "HgN/A
6:50 PM50 °FSprinkles. Broken clouds.24 mph82%29.62 "HgN/A
6:20 PM52 °FPartly sunny.17 mph82%29.59 "HgN/A
5:50 PM52 °FSprinkles. Broken clouds.20 mph82%29.56 "HgN/A
5:20 PM52 °FSprinkles. Broken clouds.13 mph88%29.56 "HgN/A
4:50 PM52 °FPartly sunny.20 mph88%29.53 "HgN/A
4:20 PM55 °FRain showers. Broken clouds.26 mph88%29.50 "HgN/A
3:50 PM57 °FPartly sunny.21 mph82%29.50 "HgN/A
3:20 PM55 °FSprinkles. Broken clouds.21 mph88%29.50 "HgN/A
2:50 PM55 °FPartly sunny.20 mph82%29.53 "HgN/A
2:20 PM55 °FLight rain. Partly sunny.16 mph82%29.56 "HgN/A
1:50 PM54 °FBroken clouds.17 mph94%29.59 "HgN/A
1:20 PM54 °FLight rain. Fog.18 mph88%29.62 "Hg3 mi
12:50 PM54 °FSprinkles. Broken clouds.21 mph88%29.65 "HgN/A
12:20 PM55 °FRain showers. Broken clouds.22 mph77%29.65 "Hg4 mi
11:50 AM57 °FPartly sunny.16 mph72%29.68 "HgN/A
11:20 AM55 °FPartly sunny.18 mph77%29.68 "HgN/A
10:50 AM55 °FLight rain. Partly sunny.20 mph77%29.68 "HgN/A
10:20 AM55 °FBroken clouds.14 mph77%29.71 "HgN/A
9:50 AM55 °FPartly sunny.15 mph77%29.74 "HgN/A
9:20 AM55 °FPartly sunny.15 mph77%29.77 "HgN/A
8:50 AM55 °FPassing clouds.14 mph77%29.77 "HgN/A
8:20 AM54 °FPassing clouds.13 mph88%29.77 "HgN/A
7:50 AM55 °FPassing clouds.10 mph82%29.77 "HgN/A
7:20 AM54 °FPassing clouds.12 mph88%29.80 "HgN/A
Weather by CustomWeather, © 2014

See weather overviewHow to use our weather pages